www.pogodaiklimat.ru

Погода и климат >> Архив погоды >> Россия >> Томская область >> Старица


ПОГОДА в Старице

  • Прогноз погоды в Старице
  • Монитор погоды в Старице

АРХИВ ПОГОДЫ в Старице

Время (UTC), дата Ветер
(напр.,м/с)
 
Видим.   Явления Облачность Т
(С)
Тd
(С)
f
(%)
Тe
(С)
Тes
(С)
Комфортность P
(гПа)
Po
(гПа)
Тmin
(С)
Tmax
(С)
R
(мм)
R24
(мм)
S
(см)
03 18.03 З 2 20 км 2 балла -5.6 -9.5 74 -10 -8 1033.2 1022.7
06 18.03 З 3 20 км 4/4 600 м
[Sc]
-3.3 -9.3 63 -8 -5 1033.1 1022.7
09 18.03 З 3 20 км 10 баллов 0.0 -10.0 47 -4 -4 1033.0 1022.7
12 18.03 З 1 20 км 4/0
[Ac trans Ci fib]
-0.3 -11.3 43 -1 -1 1031.3 1021.0 +0.9
15 18.03 штиль 0 20 км 4 балла -5.6 -11.1 65 -6 -6 1033.2 1022.7
18 18.03 ЮЗ 1 20 км 10/0
[Ci fib]
-7.6 -11.4 74 -10 -10 1031.9 1021.3
21 18.03 ЮЗ 1 20 км 9 баллов -7.6 -10.8 78 -10 -10 1031.9 1021.3
00 19.03 ЮЗ 1 20 км 10/0
[Ac und]
-6.7 -10.5 74 -9 -9 1030.5 1019.9 -8.6 58
03 19.03 ЮЗ 2 4000 м слаб. снег 10/0
[As op]
-5.1 -7.1 86 -9 -9 1031.8 1021.3
06 19.03 З 2 4000 м слаб. снег 10 баллов -1.7 -5.0 78 -5 -5 1030.3 1020.0
09 19.03 З 2 20 км {снег} 10/9 900 м
[Sc As trans]
+0.5 -6.4 60 -3 -3 1030.2 1020.0
12 19.03 С 2 20 км {снег} 6/6 600 м
[Sc]
+0.5 -6.2 61 -3 -2 1029.9 1019.6 +2.5 0.9
15 19.03 штиль 0 20 км 3/0
[Ci fib]
-5.1 -6.3 91 -6 -6 1031.8 1021.3
18 19.03 штиль 0 20 км ясно -8.5 -9.6 92 -9 -9 1031.9 1021.3
21 19.03 штиль 0 20 км ясно -10.5 -11.8 90 -11 -11 1033.4 1022.7
00 20.03 Ю 1 20 км 8/0
[Ac trans]
-10.9 -12.3 89 -13 -13 1032.5 1021.7 -12.5 57
03 20.03 Ю 1 20 км 9 баллов -7.6 -9.0 90 -10 -10 1033.3 1022.7
06 20.03 штиль 0 20 км 9 баллов +0.3 -5.7 64 -0 +1 1033.0 1022.7
09 20.03 ЮЗ 4 20 км ясно +5.7 -7.5 38 +3 +6 1031.3 1021.3
12 20.03 Ю 2 20 км ясно +5.0 -6.8 42 +3 +3 1029.3 1019.2 +6.5
15 20.03 Ю 1 20 км 2 балла -0.8 -8.7 55 -2 -2 1030.3 1020.0
18 20.03 Ю 1 20 км 6 баллов -3.0 -11.0 54 -5 -5 1029.0 1018.7
21 20.03 Ю 1 20 км 6 баллов -4.9 -11.2 61 -7 -7 1029.1 1018.7
00 21.03 ЮВ 1 20 км 3/0
[Ci fib]
-6.8 -12.0 66 -9 -9 1028.3 1017.8 -7.1 57
03 21.03 Ю 2 20 км 4 балла -3.4 -12.1 51 -7 -5 1029.1 1018.7 -7.9
06 21.03 ЮЗ 6-10
{11}
20 км 3/0
[Ci fib]
+3.0 -10.1 38 -2 +1 1026.3 1016.1
09 21.03 Ю 5 20 км 6 баллов +5.5 -8.0 37 +2 +3 1026.0 1016.0
12 21.03 Ю 4
{10}
20 км 8/0
[Ci fib]
+3.4 -6.6 48 -1 -0 1023.4 1013.3 +5.9
15 21.03 Ю 4 20 км ясно -0.2 -6.6 62 -5 -5 1023.5 1013.3
18 21.03 Ю 3 20 км ясно -2.2 -7.5 67 -7 -7 1022.2 1012.0
21 21.03 Ю 3 20 км 4 балла -3.5 -8.2 70 -9 -9 1021.0 1010.7
00 22.03 Ю 2 20 км 8/0
[As trans]
-4.9 -8.5 76 -9 -9 1018.2 1007.8 -4.9 57
03 22.03 ЮЗ 4 20 км 10 баллов -3.9 -8.0 73 -10 -10 1018.3 1008.0 -5.1
06 22.03 ЮЗ 2 20 км 10 баллов -1.1 -6.6 66 -5 -5 1019.5 1009.3
09 22.03 Ю 1 20 км 10 баллов +2.1 -6.0 55 +1 +1 1019.4 1009.3
12 22.03 В 1 20 км 10/0
[Cc]
+2.0 -6.3 54 +1 +1 1019.4 1009.3 +3.0
15 22.03 штиль 0 20 км 7 баллов -3.8 -6.9 79 -5 -5 1021.0 1010.7
18 22.03 штиль 0 20 км 1 балл -6.7 -8.3 88 -8 -8 1021.1 1010.7
21 22.03 штиль 0 20 км ясно -9.2 -10.5 90 -10 -10 1021.2 1010.7
00 23.03 штиль 0 20 км ясно -11.4 -13.0 88 -12 -12 1020.2 1009.6 -11.4 57
03 23.03 штиль 0 20 км ясно -3.5 -8.5 68 -4 -1 1021.0 1010.7 -12.1
06 23.03 СВ 2 20 км ясно +3.2 -6.2 50 +1 +8 1020.7 1010.7
09 23.03 Ю 1 20 км 4 балла +6.0 -7.2 38 +6 +9 1019.2 1009.3
12 23.03 СВ 1 20 км 4/0
[Cc]
+5.8 -6.5 41 +5 +6 1016.8 1006.8 +7.8
15 23.03 В 2 20 км 2 балла +0.6 -6.3 60 -2 -2 1018.1 1008.0
18 23.03 штиль 0 20 км 2 балла -4.7 -6.8 85 -6 -6 1017.0 1006.7
21 23.03 штиль 0 20 км ясно -5.8 -7.8 86 -7 -7 1017.0 1006.7
00 24.03 штиль 0 20 км ясно -8.6 -9.6 92 -9 -9 1016.7 1006.2 -8.7 57
03 24.03 штиль 0 20 км 7 баллов -2.6 -6.2 76 -4 -2 1018.2 1008.0 -9.5
12 24.03 З 1 20 км 10/0
[Ac und]
+3.0 -3.3 63 +2 +2 1018.4 1008.3 +7.1

 

Местоположение метеостанции Старица (Томская область, Россия): широта 58.15 долгота 80.58 высота над уровнем моря 80 м.

В архиве по умолчанию представлена погода в Старице за последнюю неделю. Архивные данные за месяц целиком и за предыдущие месяцы, начиная с января 2011 года, Вы можете получить, выбрав интересующий диапазон дат из раскрывающегося списка и нажав кнопку "Ввод!".


*Определитесь, кто Вы:
робот инопланетянин человек

Внимание! Время в таблицах - всемирное. Для получения местного времени необходимо прибавить поправку, которая равна 7 ч.

Смотрите также архив погоды в соседних городах и на ближайших метеорологических станциях:

Погода в Парабели (Томская область, Россия) (81 км)
Погода в Пудино (Томская область, Россия) (94 км)
Погода в Каргасоке (Томская область, Россия) (104 км)
Погода в Подгорном (Томская область, Россия) (130 км)
Погода в Колпашево (Томская область, Россия) (140 км)
Погода в Бакчаре (Томская область, Россия) (156 км)
Погода в Прохоркино (Томская область, Россия) (165 км)
Погода в Березовке (Томская область, Россия) (176 км)
Погода в Среднем Васюгане (Томская область, Россия) (181 км)
Погода в Молчаново (Томская область, Россия) (199 км)

Пояснения к столбцам:

Ветер - указаны скорость ветра в м/с - средняя за 10 мин, порывы в срок и между сроками (в фигурных скобках) и направление, откуда дует ветер: С - северный, СВ - северо-восточный, В - восточный, ЮВ - юго-восточный, Ю - южный, ЮЗ - юго-западный, З - западный, СЗ - северо-западный.
Видимость - горизонтальная дальность видимости в метрах или километрах. При видимости от 1 до 10 км при отсутствии осадков обычно наблюдается дымка, при ухудшении видимости до 1 км и менее - туман. В сухую погоду видимость может ухудшаться дымом, пылью или мглою.
Явления - указаны атмосферные явления, наблюдавшиеся в срок или в последний час перед сроком; фигурными скобками обозначены явления, наблюдавшиеся между сроками (за 1-3 часа до срока); квадратными скобками обозначены град или гололедные отложения с указанием их диаметра в мм.
Облачность - указаны через наклонную черту общая и нижняя облачность в баллах и высота нижней границы облаков в метрах; квадратными скобками обозначены формы облаков: Ci - перистые, Cs - перисто-слоистые, Cc - перисто-кучевые, Ac - высококучевые, As - высокослоистые, Sc - слоисто-кучевые, Ns - слоисто-дождевые, Cu - кучевые, Cb - кучево-дождевые. Подробнее классификацию облаков см. в Атласе облаков (PDF).
T - Температура воздуха - температура, измеренная на высоте 2 м над землей.
Td - Температура точки росы - температура, при понижении до которой содержащийся в воздухе водяной пар достигнет насыщения.
f - Относительная влажность воздуха - влажноcть воздуха, измеренная на высоте 2 м над землей.
Te - Эффективная температура - температура, которую ощущает одетый по сезону человек в тени. Характеристика душности погоды. При расчете учитывается влияние влажности воздуха и скорости ветра на теплоощущения человека.
Tes - Эффективная температура на солнце - температура, которую ощущает человек, с поправкой на солнечный нагрев. Характеристика знойности погоды. Зависит от высоты солнца над горизонтом, облачности и скорости ветра. Ночью, в пасмурную погоду, а также при ветре 12 м/с и более поправка равна нулю.
P - Атмосферное давление - приведенное к уровню моря атмосферное давление.
Po - Атмосферное давление - измеренное на уровне метеостанции атмосферное давление.
Tmin - Минимальная температура - минимум температуры воздуха на высоте 2 м над землей.
Tmax - Максимальная температура - максимум температуры воздуха на высоте 2 м над землей.
R - Количество осадков - Количество выпавших осадков за период времени, мм. При наведении курсора мыши на число - период времени, за который выпало указанное количество осадков.
R24 - Количество осадков - Количество выпавших осадков за 24 часа, мм.
S - Снежный покров - Высота снежного покрова, см. При наведении курсора мыши на число - состояние снежного покрова и степень покрытия местности в баллах.